Lid_Strength_Index
0 2 5 7 10 12 14 13 11 11 10 8 7 8 9 9 10 12 3 1 0 0 -0 -0 -1 -2 -2 -2 -1 -2 -2 -2 -2 -2 -2 -2 -2 -2 -2 -2 -2 -2 -2 -2 -2 -2 -2 -2 -2
2 3 6 9 13 15 14 12 12 10 8 7 7 8 9 11 6 6 4 1 0 -0 -0 -0 -1 -1 -2 -2 -2 -2 -2 -2 -2 -2 -2 -2 -2 -2 -2 -2 -2 -2 -2 -2 -2 -2 -2 -2 -2
3 5 8 12 14 15 14 11 10 9 7 8 9 7 9 9 6 4 2 0 0 0 -0 -0 -1 -1 -2 -2 -2 -2 -2 -2 -2 -1 -2 -2 -2 -2 -2 -2 -2 -2 -2 -2 -2 -2 -2 -2 -2
4 5 8 13 14 13 12 11 8 9 8 7 8 10 7 4 4 2 1 0 1 1 0 -0 -1 -1 -2 -2 -2 -2 -2 -2 -2 -2 -2 -2 -2 -2 -2 -2 -2 -2 -2 -2 -2 -2 -1 -2 -2
5 7 11 13 13 12 11 9 8 9 8 8 8 11 10 4 3 1 1 0 1 1 0 0 -1 -1 -2 -2 -2 -2 -2 -2 -2 -2 -3 -2 -2 -2 -2 -2 -2 -2 -2 -2 -2 -2 -1 -1 -1
8 8 13 15 13 10 10 8 9 9 8 8 9 9 9 4 3 2 1 1 0 1 0 0 1 -0 -1 -1 -2 -2 -2 -2 -2 -2 -3 -2 -2 -2 -2 -2 -2 -2 -2 -2 -2 -1 -1 -1 -1
9 10 14 14 13 11 10 9 9 9 9 8 6 10 8 6 4 2 2 1 1 0 0 1 0 0 1 -0 -1 -1 -2 -2 -2 -2 -3 -2 -2 -2 -2 -2 -2 -2 -2 -1 -1 -1 -1 -1 -1
8 9 14 14 13 13 10 9 9 9 9 7 5 9 9 6 4 3 2 2 2 1 1 1 1 0 0 0 1 -0 -1 -1 -1 -1 -1 -0 -1 -1 -1 -1 -2 -2 -1 -1 -1 -1 -1 -1 -1
7 11 13 13 12 11 8 10 9 8 7 7 6 7 5 4 4 4 4 3 2 1 2 1 1 1 0 0 1 1 0 -0 -0 -0 1 1 1 0 0 -0 -1 -2 -2 -1 -1 -1 -1 -1 -1
9 12 12 10 9 11 9 9 8 8 8 8 7 6 4 4 5 5 5 3 4 2 2 1 1 1 1 -0 0 1 0 1 1 1 1 1 1 1 1 1 0 -1 -1 -1 -1 -1 -1 -0 3
9 11 9 9 8 8 8 9 7 10 10 9 7 7 5 5 5 5 5 4 3 3 3 2 2 2 1 1 1 2 1 2 2 1 1 1 1 2 1 1 0 1 2 1 1 1 1 2 3
12 8 8 8 7 8 9 7 8 8 9 7 7 6 5 5 5 5 5 5 4 4 3 2 2 2 1 0 1 2 2 2 2 2 2 2 3 3 2 2 1 2 2 2 2 2 2 2 2
10 9 8 7 7 7 7 8 8 8 7 7 5 5 5 5 5 5 4 4 4 4 3 3 2 1 1 0 1 1 1 2 2 2 2 2 3 3 3 2 2 2 2 3 3 3 3 3 3
10 9 9 8 8 8 8 8 8 7 7 7 6 6 5 5 4 6 4 4 4 4 3 3 2 1 1 0 0 1 1 1 2 2 2 1 2 3 3 2 2 2 3 3 3 3 3 3 3
9 11 10 10 9 9 8 10 9 6 6 6 7 6 5 4 4 4 3 3 3 3 3 4 3 2 1 1 0 1 1 1 1 1 2 2 1 2 2 2 3 2 3 3 3 3 3 3 3
11 12 16 12 9 8 9 14 10 8 8 7 8 7 6 5 4 4 3 3 3 2 3 3 3 2 1 1 1 0 1 1 1 1 1 2 2 2 2 2 2 2 3 3 4 4 4 4 4
14 18 15 13 9 9 10 13 10 9 9 9 9 9 8 7 7 6 3 2 2 2 2 3 3 3 2 1 1 1 1 1 1 2 1 1 1 1 1 1 2 3 3 4 3 3 4 4 4
16 16 15 16 13 10 11 12 9 9 10 10 10 9 9 8 7 6 6 4 2 2 2 2 2 2 3 2 2 2 2 2 1 2 2 2 1 1 1 1 2 2 3 4 4 3 4 4 4
13 14 15 14 11 11 12 12 10 10 11 11 10 10 10 9 7 7 6 6 5 2 2 2 2 2 3 3 3 2 3 2 2 2 2 2 2 2 1 1 2 3 3 3 4 4 4 4 5
13 14 15 13 11 11 13 13 12 11 11 10 10 10 10 9 8 7 7 6 6 4 2 2 2 2 2 2 3 2 3 2 1 1 2 1 2 2 1 2 2 2 2 2 3 4 4 4 5
12 13 15 15 12 12 13 14 14 12 11 11 10 9 9 9 8 8 7 7 7 6 4 2 1 2 2 2 3 4 4 5 4 2 2 2 1 1 2 2 1 3 2 2 2 3 3 3 5
15 11 12 12 14 17 13 19 17 16 14 11 10 10 10 9 8 8 7 7 7 8 7 5 2 1 2 2 2 3 4 4 4 3 3 2 3 2 2 2 2 2 3 2 1 2 2 3 3
13 10 11 12 14 15 16 17 19 15 15 13 11 10 10 9 8 8 8 7 7 7 8 7 4 2 1 2 2 2 3 3 3 3 4 4 3 3 3 2 2 2 3 3 3 2 3 2 2
11 12 12 12 14 18 17 16 18 17 15 13 11 10 9 9 9 9 8 8 9 8 8 8 6 4 2 3 3 2 3 3 3 3 4 4 4 4 4 3 3 2 2 3 2 3 4 2 2
12 14 21 19 19 21 17 16 17 16 14 12 11 10 10 10 10 9 10 9 8 8 8 7 6 4 3 2 3 3 3 3 3 3 3 4 4 4 4 3 3 3 3 3 3 3 3 4 2
12 13 19 24 22 20 16 18 16 13 11 10 9 8 10 10 10 10 10 10 10 10 10 9 8 8 5 3 3 3 4 3 3 3 3 3 3 3 3 3 3 3 3 3 3 3 3 3 3
13 15 13 18 20 22 18 17 14 13 13 12 11 12 11 11 11 11 11 11 10 10 10 10 9 8 8 8 6 3 2 3 3 3 3 3 2 2 3 3 3 3 3 3 3 3 4 4 4
11 10 16 15 21 23 19 19 17 15 14 13 12 12 13 13 12 11 11 10 10 10 10 10 9 9 9 8 8 7 6 4 2 1 2 2 2 2 2 3 3 2 2 2 3 3 3 3 3
13 14 13 14 16 20 21 18 14 13 12 12 12 12 12 12 11 11 10 10 11 10 10 10 10 10 9 9 8 8 7 7 5 4 2 1 1 1 2 2 3 3 3 3 3 3 3 4 3
10 12 13 17 18 16 17 16 12 12 11 10 11 11 11 11 10 10 10 10 10 11 11 11 10 10 9 9 9 9 8 8 8 7 6 5 3 1 1 1 2 2 2 2 3 4 4 4 4